Go to the U of M home page
School of Physics & Astronomy
Physics & Astronomy Wiki

physlab:labdoc1201:home

1201 docs

1201lab1_intro.docx22.7 KiB2013/09/24 13:42
1201lab1_p1_constant_velocity_1.docx30.4 KiB2013/09/24 13:43
1201lab1_p2_constant_velocity_2.docx57.1 KiB2013/09/24 13:43
1201lab1_p3_uncertainty_2.docx27.7 KiB2013/09/24 13:43
1201lab1_report.docx18.7 KiB2013/09/24 13:43
1201lab2_check_understandingdocx.docx21.3 KiB2013/09/24 13:43
1201lab2_intro.docx22.0 KiB2013/09/24 13:43
1201lab2_p1_falling.docx27.2 KiB2013/09/24 13:43
1201lab2_p2_down_incline.docx58.1 KiB2013/09/24 13:43
1201lab2_p3_up_down_incline.docx27.5 KiB2013/09/24 13:43
1201lab2_p4_normal_frictional_force.docx26.7 KiB2013/09/24 13:43
1201lab2_p5_velocity_force.docx31.0 KiB2013/09/24 13:43
1201lab2_p6_2d_projectile.docx25.4 KiB2013/09/24 13:43
1201lab2_table_coefficients_friction.docx16.8 KiB2013/09/24 13:43
1201lab3_check_understandingdocx.docx22.9 KiB2013/09/24 13:43
1201lab3_intro.docx20.7 KiB2013/09/24 13:43
1201lab3_p1_springs_equilibrium_1.docx42.1 KiB2013/09/24 13:43
1201lab3_p2_springs_equilibrium_2.docx31.4 KiB2013/09/24 13:43
1201lab3_p3_leg_elevator.docx47.3 KiB2013/09/24 13:43
1201lab3_p4_equilibrium_walkway.docx28.5 KiB2013/09/24 13:43
1201lab3_p5_mobile.docx25.5 KiB2013/09/24 13:43
1201lab3_p6_mechanical_arm.docx35.1 KiB2013/09/24 13:43
1201lab4_intro.docx17.8 KiB2013/09/24 13:43
1201lab4_p1_circular_motion.docx25.4 KiB2013/09/24 13:43
1201lab4_p2_rotation_linear.docx34.1 KiB2013/09/24 13:43
1201lab4_p3_angular_linear_acceleration.docx45.0 KiB2013/09/24 13:43
1201lab4_p4_moment_inertia_complex.docx28.9 KiB2013/09/24 13:43
1201lab4_p5_moment_inertia_axes.docx46.9 KiB2013/09/24 13:43
1201lab4_p6_rolling_torque.docx43.3 KiB2013/09/24 13:43
1201lab5_intro.docx18.6 KiB2013/09/24 13:43
1201lab5_p1_elastic_gravitational.docx35.0 KiB2013/09/24 13:43
1201lab5_p2_pendulum_velocity.docx23.5 KiB2013/09/24 13:43
1201lab5_p3_velocity_energy.docx30.7 KiB2013/09/24 13:43
1201lab5_p4_kinetic_energy_work.docx22.5 KiB2013/09/24 13:43
1201lab5_p5_kinetic_energy_work_2.docx24.5 KiB2013/09/24 13:43
1201lab6_intro.docx22.6 KiB2013/09/24 13:43
1201lab6_p1_perfectly_inelastic.docx29.0 KiB2013/09/24 13:43
1201lab6_p2_elastic_collisions.docx29.9 KiB2013/09/24 13:43
1201lab6_p3_conservation_angular_momentum.docx27.1 KiB2013/09/24 13:43
1201lab7_check_understanding.docx29.1 KiB2013/09/24 13:43
1201lab7_intro.docx19.7 KiB2013/09/24 13:43
1201lab7_p1_spring_constants.docx26.4 KiB2013/09/24 13:43
1201lab7_p2_oscillation_freq_two_springs.docx36.3 KiB2013/09/24 13:43
1201lab7_p3_oscillation_extended_system.docx34.0 KiB2013/09/24 13:43
1201lab7_p4_driven_oscillations.docx37.7 KiB2013/09/24 13:43
1201lab7_p5_pendulum.docx24.5 KiB2013/09/24 13:43
1201lab8_intro.docx18.1 KiB2013/09/24 13:43
1201lab8_p1_power_temperature.docx32.5 KiB2013/09/24 13:43
1201lab8_p2_specific_heat_simple.docx38.4 KiB2013/09/24 13:43
1201lab8_p3_heat_capacity_complex.docx38.3 KiB2013/09/24 13:43
1201lab8_p4_mechanical_equivalent_heat.docx36.3 KiB2013/09/24 13:43
1201lab8_p5_motion_fluid.docx22.4 KiB2013/09/24 13:43
1201lab8_thermal_properties.docx22.0 KiB2013/09/24 13:43
1201labintro.docx28.5 KiB2013/09/24 13:43
1201toc.docx25.9 KiB2013/09/24 13:43
physlab/labdoc1201/home.txt · Last modified: 2013/09/24 13:42 by sean